Location: Edmonton
(53.5500°N, 113.5000°W)
Time: 22:01:52
(UTC-06:00)

Daily predictions for brighter satellites

Satellite Brightness Start Highest point End
(mag) Time Altitude Azimuth Time Altitude Azimuth Time Altitude Azimuth
Cosmos 2082 Rocket 3.1 19:00:38 10° SW 19:06:11 52° NW 19:11:48 10° NNE
Cosmos 2322 Rocket 2.8 19:02:15 10° NW 19:07:49 63° WSW 19:13:20 10° SSE
Aureole 2 Rocket 4.3 19:08:36 10° N 19:11:11 18° NE 19:13:51 10° E
Cosmos 2221 4.0 19:11:08 10° ESE 19:13:43 16° E 19:16:20 10° NE
Cosmos 1500 Rocket 3.8 19:09:58 10° N 19:14:13 48° ENE 19:18:24 10° SSE
Timation 2 Rocket 4.2 19:07:49 10° SSW 19:14:22 86° ESE 19:21:12 10° NE
RESURS DK-1 2.3 19:10:55 10° NNW 19:15:03 68° NE 19:19:11 10° SE
EO 1 Del DPAF 3.7 19:11:40 10° NNE 19:15:18 38° E 19:18:55 10° SSE
Cosmos 2058 3.2 19:11:29 10° N 19:15:36 48° ENE 19:19:38 10° SSE
Cosmos 921 Rocket 3.4 19:11:56 10° NNW 19:16:18 46° ENE 19:20:34 10° SE
Resurs 01 Rocket 3.4 19:14:20 10° E 19:16:44 15° NE 19:19:08 10° NNE
Meteor 2-21 Rocket 4.5 19:11:26 10° S 19:17:25 62° E 19:23:24 10° NNE
Cosmos 1470 3.4 19:14:04 10° SSW 19:18:01 62° WNW 19:21:59 10° N
ATLAS 5 CENTAUR R/B 3.2 19:15:36 10° W 19:20:14 36° NNW 19:25:22 10° NE
Genesis I 4.0 19:16:41 10° WSW 19:20:31 50° NW 19:24:25 10° NE
Cosmos 1461 3.2 19:17:37 10° SSW 19:21:31 46° SE 19:25:37 10° NE
Meteor 1-11 4.3 19:16:02 10° NNW 19:21:54 88° ENE 19:27:39 10° SSE
Cosmos 1328 4.3 19:19:52 10° NNW 19:23:51 67° W 19:27:47 10° S
Lacrosse 5 rocket 1.5 19:20:02 10° WSW 19:24:32 80° SSE 19:28:40 11° ENE
Cosmos 2366 rocket 4.0 19:21:12 10° S 19:27:16 59° E 19:33:19 10° NNE
Cosmos 2322 3.7 19:23:17 10° NNW 19:29:02 77° NE 19:34:47 10° SE
Cosmos 2084 4.0 19:26:27 10° NW 19:29:56 34° NNE 19:32:48 14° E
SJ-6B 3.8 19:27:09 10° ESE 19:30:14 25° ENE 19:33:20 10° N
Lacrosse 4 Rocket 3.7 19:28:32 10° WNW 19:31:53 20° NNW 19:35:11 10° NNE
MTI 3.7 19:30:26 10° NNE 19:33:40 75° ESE 19:36:53 10° S
Aureole 1 Rocket 3.6 19:29:05 10° S 19:35:09 61° ESE 19:39:45 10° NNE
COSMO-SKYMED 1 2.7 19:31:23 10° NNE 19:35:39 52° E 19:39:54 10° S
Landsat 4 3.8 19:31:56 10° NNE 19:35:41 80° WNW 19:39:24 10° SSW
FREGAT/IRIS 3.4 19:34:11 10° SE 19:36:51 30° ENE 19:39:32 10° N
USA 234 3.4 19:31:01 11° E 19:37:15 70° N 19:43:47 10° WNW
Cosmos 1833 Rocket 4.1 19:32:41 10° WSW 19:37:51 36° NW 19:43:02 10° NNE
Thor Agena Rocket 4.4 19:33:35 10° NE 19:37:57 27° E 19:42:14 10° SSE
Meteor 1-16 Rocket 4.0 19:33:23 10° S 19:38:40 83° E 19:44:06 10° NNE
Cosmos 1703 3.2 19:35:03 10° N 19:39:02 83° ENE 19:42:57 10° SSE
FENGYUN 3A 3.6 19:35:16 10° SSE 19:40:39 72° ENE 19:46:05 10° NNW
Cosmos 1420 Rocket 4.0 19:35:26 10° NNW 19:40:47 70° ENE 19:46:04 10° SE
Iridium 4 Rocket 4.2 19:36:09 10° SE 19:41:15 38° E 19:46:36 10° NNE
SL-8 Rocket 4.0 19:35:27 10° S 19:41:39 89° W 19:47:58 10° N
Gbstr 26 Del rocket 3.7 19:39:06 10° W 19:43:48 65° SSW 19:48:55 13° ESE
NOSS 0 Rocket 4.4 19:38:02 10° NNW 19:43:56 43° NE 19:48:55 14° ESE
Cosmos 1680 Rocket 4.2 19:39:34 10° SW 19:44:46 59° WNW 19:50:00 10° NNE
Sich 1 4.0 19:43:45 10° N 19:47:31 28° ENE 19:50:25 15° ESE
Meteor 1-28 Rocket 3.7 19:45:26 10° N 19:49:14 65° WNW 19:52:58 10° SSW
Cosmos 2219 Rocket 2.4 19:45:26 10° NNW 19:50:53 49° NE 19:55:33 14° ESE
Cosmos 1400 Rocket 3.5 19:48:05 10° NNW 19:52:07 59° W 19:56:04 10° S
Cosmos 1805 Rocket 3.9 19:48:17 10° N 19:52:27 41° ENE 19:56:37 10° SE
Envisat 4.0 19:49:31 16° ESE 19:52:32 27° ENE 19:56:47 10° N
CZ-4 R/B 3.8 19:52:46 10° SSW 19:56:23 27° W 19:59:58 10° NW
Cosmos 1000 Rocket 4.5 19:52:17 10° N 19:58:32 63° ENE 20:04:40 10° SSE
Cosmos 1666 Rocket 4.1 19:56:57 10° N 20:00:59 34° ENE 20:03:29 19° SE
SL-16 R/B 4.4 19:57:05 10° NW 20:01:50 28° WSW 20:06:32 10° SSW
Aureole 2 4.5 20:00:11 10° NNW 20:03:08 64° WSW 20:06:15 10° SSE
Cosmos 2218 Rocket 4.2 19:57:42 10° SSW 20:03:51 76° WNW 20:10:03 10° N
Cosmos 1908 3.4 20:00:41 10° S 20:04:26 47° E 20:08:13 10° NNE
Cosmos 2333 4.2 19:58:53 10° NNW 20:04:37 79° ENE 20:10:22 10° SE
Cosmos 1821 Rocket 4.3 19:58:57 10° SSE 20:04:39 41° E 20:10:28 10° NNE
Cosmos 2237 4.4 19:59:58 10° NW 20:05:42 75° WSW 20:11:24 10° SSE
GP-B 3.9 20:05:39 10° N 20:10:00 54° W 20:14:19 10° SSW
Cosmos 1633 Rocket 3.6 20:06:06 10° N 20:10:12 36° ENE 20:11:58 26° ESE
HJ-1C 3.5 20:08:41 19° SE 20:10:57 54° ENE 20:14:20 10° N
Cosmos 1934 Rocket 4.5 20:06:23 10° SSE 20:12:07 37° E 20:17:54 10° NNE
H-2A R/B 2.7 20:08:32 10° SSE 20:12:25 76° ENE 20:16:22 10° N
Cosmos 1331 Rocket 4.4 20:09:19 10° NNW 20:14:21 43° NE 20:16:47 26° ESE
DMSP B5D1-3 4.4 20:14:28 10° NNE 20:19:39 80° ESE 20:24:47 10° SSW
Cosmos 2237 Rocket 2.5 20:15:06 10° NNW 20:20:38 47° NE 20:23:17 28° ESE
In-Cosmos 22 Rocket 4.4 20:16:25 10° N 20:21:55 50° ENE 20:25:46 20° SE
SKYMED 2 4.2 20:19:28 10° N 20:23:45 58° WNW 20:28:01 10° SSW
Cosmos 1939 Rocket 4.0 20:24:19 26° NE 20:24:19 26° NE 20:27:29 10° N
Cosmos 2123 Rocket 4.0 20:19:42 10° N 20:25:51 59° ENE 20:32:01 10° SSE
CZ-2D R/B 3.3 20:27:24 37° SE 20:28:41 58° ENE 20:32:32 10° N
SL-16 R/B 3.1 20:24:19 10° NNW 20:29:22 31° NE 20:30:56 27° ENE
ALOS 3.4 20:24:58 10° S 20:29:27 45° W 20:33:59 10° NNW
Abrixas rocket 3.3 20:28:48 10° SW 20:31:42 31° S 20:31:42 31° S
SAR-Lupe-3 4.4 20:28:44 10° NNE 20:32:21 86° ESE 20:35:56 10° SSW
CZ-4C R/B 3.4 20:29:01 10° S 20:31:35 22° SE 20:31:35 22° SE
Cosmos 1315 Rocket 4.2 20:30:33 10° NNW 20:34:22 41° W 20:38:12 10° SSW
Cosmos 2098 Rocket 3.4 20:30:08 10° S 20:34:40 64° E 20:40:30 10° NNE
Cosmos 468 4.5 20:29:34 10° S 20:34:41 59° ESE 20:39:50 10° NNE
Cosmos 1892 4.4 20:34:55 10° N 20:36:41 21° NNE 20:36:41 21° NNE
Cosmos 1605 Rocket 4.3 20:35:04 20° SE 20:38:46 39° E 20:44:21 10° NNE
Cosmos 1302 Rocket 4.4 20:34:39 10° NNW 20:39:37 41° NE 20:40:31 38° E
USA 267 3.9 20:40:29 30° ESE 20:41:07 30° SE 20:46:45 10° SSW
COSMOS 2428 3.2 20:36:14 10° NW 20:41:50 60° WSW 20:47:22 10° SSE
Cosmos 1980 3.7 20:38:10 10° NNW 20:43:49 67° NE 20:45:55 39° ESE
USA 32 4.2 20:39:18 10° N 20:44:24 48° ENE 20:45:20 43° ESE
Cosmos 2360 Rocket 4.0 20:39:47 10° NW 20:44:38 30° WSW 20:49:29 10° SSW
Cosmos 2333 Rocket 2.2 20:39:39 10° NNW 20:45:26 88° ENE 20:48:29 30° SSE
Aureole 2 Rocket 2.8 20:42:53 10° NNW 20:46:38 75° WSW 20:47:44 45° S
H-2A R/B 3.8 20:49:16 17° NE 20:49:16 17° NE 20:52:06 10° N
YAOGAN 6 4.4 20:50:31 21° NNE 20:50:31 21° NNE 20:52:05 10° N
Cosmos 2221 2.7 20:46:25 10° SSW 20:50:45 73° WNW 20:55:07 10° N
Cosmos 2082 Rocket 4.5 20:47:34 10° WNW 20:51:39 19° NNW 20:55:44 10° NNE
Resurs 01 Rocket 1.5 20:51:22 49° SSE 20:52:32 79° ENE 20:56:58 10° NNW
Cosmos 1833 4.3 20:48:29 10° SW 20:54:11 79° WNW 20:59:51 10° NNE
Spot 2 Rocket 3.3 20:54:43 41° SSE 20:56:30 76° ENE 21:01:35 10° NNW
Cosmos 1110 Rocket 3.9 20:52:51 10° NNW 20:58:13 90° NW 21:00:09 41° SSE
Cosmos 2219 3.3 20:52:48 10° S 20:58:19 50° ESE 20:58:44 49° E
Cosmos 1470 Rocket 3.9 20:54:37 10° N 20:58:30 51° NE 20:58:30 51° NE
Cosmos 1461 4.1 20:56:52 10° WSW 21:00:46 39° NNW 21:02:51 24° NNE
Lacrosse 5 rocket 1.8 20:59:41 10° W 21:03:59 54° N 21:04:21 52° NNE
SJ-6B 4.1 21:01:41 12° SSW 21:04:47 37° W 21:08:18 10° NNW
Cosmos 1447 Rocket 4.4 20:59:37 10° N 21:05:58 65° ENE 21:07:51 45° SE
ATLAS 5 CENTAUR R/B 3.4 21:01:34 10° NW 21:06:15 30° N 21:08:04 25° NE
Resurs 1-3 3.6 21:07:09 60° S 21:07:54 81° WSW 21:12:19 10° NNW
Cosmos 2084 3.6 21:05:54 10° NW 21:09:23 55° WSW 21:09:23 55° WSW
Lacrosse 4 Rocket 4.0 21:10:25 10° NNW 21:12:13 12° N 21:13:42 11° NNE
MOS 1-B Rocket 4.2 21:12:53 17° S 21:17:17 65° WSW 21:23:29 10° NNW
Thor Agena Rocket 4.1 21:12:33 10° N 21:17:35 56° WNW 21:22:31 10° SW
USA 234 3.2 21:18:22 49° SE 21:20:18 76° SSW 21:26:53 10° WNW
Geosat 3.8 21:21:42 81° ESE 21:21:55 85° NE 21:27:00 10° NNW
Cosmos 1048 Rocket 3.9 21:18:02 10° SSW 21:23:10 83° WNW 21:26:02 27° NNE
Sich 1 4.2 21:21:17 10° NNW 21:25:22 41° W 21:27:26 24° SSW
SL-19 R/B 4.5 21:30:00 65° E 21:30:33 68° ENE 21:36:36 10° NNW
NOSS 0 Rocket 4.4 21:24:36 10° NW 21:30:37 55° WSW 21:32:57 36° S
Envisat 3.4 21:29:44 41° SSW 21:31:15 59° W 21:36:19 10° NNW
Cosmos 2219 Rocket 3.3 21:29:36 10° NW 21:34:46 39° WSW 21:37:18 26° SSW
NOAA 11 4.5 21:39:24 56° NNE 21:39:24 56° NNE 21:43:52 10° NNW
ARGOS 4.1 21:42:21 37° NNE 21:42:21 37° NNE 21:45:58 10° N
ERS-1 Rocket 4.1 21:55:41 35° N 21:55:41 35° N 21:58:40 10° N
Meteor 2-3 Rocket 4.2 21:56:46 10° NNW 22:02:28 58° W 22:02:47 57° WSW
Cosmos 2237 Rocket 3.1 21:59:21 10° NW 22:04:42 42° WSW 22:05:07 42° WSW
SL-16 R/B 2.8 22:08:20 10° NW 22:12:48 55° NW 22:12:48 55° NW
CZ-4C R/B 4.2 22:15:38 10° SW 22:16:51 18° SW 22:16:51 18° SW
USA 267 4.2 22:27:52 35° SW 22:27:52 35° SW 22:31:23 10° SW
H-2A R/B 3.6 22:29:55 30° N 22:29:55 30° N 22:32:37 10° NNW
Cosmos 2333 Rocket 4.2 22:24:54 10° NW 22:29:00 21° W 22:30:30 19° WSW
Resurs 01 Rocket 4.2 22:28:57 15° W 22:29:36 16° W 22:32:18 10° NW
Lacrosse 5 rocket 4.4 22:39:23 10° WNW 22:40:02 14° WNW 22:40:02 14° WNW
Terra 4.5 22:55:51 14° N 22:55:51 14° N 22:56:32 10° N
ATLAS 5 CENTAUR R/B 3.7 22:46:36 10° NW 22:49:35 31° NNW 22:49:35 31° NNW
